Regional Weather Roundup
Issued by NWS

Home | Current Version | Previous Version | Text Only | Print | Product List | Glossary On
Versions: 1 2 3 4 5 6 7 8 9 10 11 12 13 14 15 16 17 18 19 20 21 22 23 24 25 26 27
000
ASUS45 KTFX 301610
RWRMT
MONTANA REGIONAL WEATHER ROUNDUP
NATIONAL WEATHER SERVICE GREAT FALLS MT
1000 AM MDT TUE AUG 30 2016

NOTE: "FAIR" INDICATES FEW OR NO CLOUDS BELOW 12000 FEET WITH NO
SIGNIFICANT WEATHER AND/OR OBSTRUCTIONS TO VISIBILITY.

MTZ001>007-043-301700-
WEST OF THE DIVIDE

CITY           SKY/WX    TMP DP  RH WIND       PRES   REMARKS
KALISPELL      SUNNY     70  48  45 NE10      30.08S
MISSOULA       MOSUNNY   63  43  48 CALM      30.12S
BUTTE          SUNNY     62  33  33 CALM      30.26S
MULLAN PASS    CLOUDY    64  38  38 SE8       30.21R
DEER LODGE       N/A     59  37  44 CALM      30.22F
EUREKA           N/A     63  50  63 CALM      30.11
HAMILTON         N/A     64  39  39 S3        30.14R
LIBBY            N/A     64  45  48 CALM      30.07F
PLAINS           N/A     63  47  55 CALM      30.05F
RONAN            N/A     70  53  54 CALM      30.12F
$$

MTZ008-052>055-301700-
SOUTHWEST MONTANA

CITY           SKY/WX    TMP DP  RH WIND       PRES   REMARKS
BOZEMAN        MOSUNNY   59  49  69 E3        30.21S
DILLON         CLOUDY    65  39  38 SW10      30.23S
W YELLOWSTONE  PTSUNNY   54  27  35 CALM      30.39F HAZE
ENNIS          SUNNY     72  28  20 VRB5      30.29S
THREE FORKS      N/A     56  56 100 CALM      30.17S
TWIN BRIDGES     N/A     63  33  32 SE3       30.19S
$$

MTZ009-010-012-014-046-048-049-054-301700-
EAST SLOPES AND CENTRAL MONTANA

CITY           SKY/WX    TMP DP  RH WIND       PRES   REMARKS
CUT BANK       SUNNY     64  49  57 SE5       30.15S
GREAT FALLS    SUNNY     71  45  39 W7        30.12F
MALMSTROM AFB  SUNNY     68  49  49 NW2       30.12S
HELENA         CLOUDY    65  42  43 CALM      30.16F
CHOTEAU          N/A     68  48  49 CALM      30.16F
CONRAD           N/A     67  56  67 NW2       30.14F
$$

MTZ011-013-016-021-045-047-050-051-301700-
NORTH CENTRAL MONTANA

CITY           SKY/WX    TMP DP  RH WIND       PRES   REMARKS
HAVRE          SUNNY     69  49  48 E12       30.10S
LEWISTOWN      SUNNY     68  49  50 SE10      30.16F
N BAR RANCH      N/A     63  48  59 CALM      30.21S
CHINOOK          N/A     66  50  55 E7        30.09S
$$

MTZ017>020-022>027-061-062-301700-
NORTHEAST MONTANA

CITY           SKY/WX    TMP DP  RH WIND       PRES   REMARKS
GLASGOW        MOSUNNY   72  50  45 E18       30.08F
JORDAN           N/A     72  51  47 E12       30.11F
SIDNEY         CLOUDY    75  58  55 S8        30.20R
WOLF POINT     MOSUNNY   71  52  50 E10       30.14F
PLENTYWOOD       N/A     70  46  43 E12       30.20S
POPLAR           N/A     73  54  49 SE8       30.18S
SCOBEY           N/A     70  49  47 CALM      30.15F
$$

MTZ028>42-056>058-301700-
SOUTHCENTRAL AND SOUTHEAST MONTANA

CITY           SKY/WX    TMP DP  RH WIND       PRES   REMARKS
BAKER          PTSUNNY   69  60  73 E17       30.25R
BILLINGS       PTSUNNY   69  48  47 NE5       30.15S
LIVINGSTON     SUNNY     62  43  49 NW10      30.20S
MILES CITY     CLOUDY    71  54  54 NE9       30.13S
EKALAKA          N/A     71  60  68 SE15      30.18R
FORSYTH          N/A     70  54  56 E9        30.11S
LAUREL           N/A     66  52  60 NE5       30.12R
ROUNDUP          N/A     63  47  55 E1        30.05S
$$

REGIONAL REPORTS...DAKOTAS

CITY           SKY/WX    TMP DP  RH WIND       PRES   REMARKS
WILLISTON      SUNNY     74  45  35 SE9       30.22S
MINOT          SUNNY     70  47  43 SE7       30.27S
DICKINSON      SUNNY     72  46  39 SE17      30.23S
CROSBY           N/A     72  48  43 E10       30.25F HAZE
WATFORD CITY     N/A     75  41  29 SE14      30.24R
BISMARCK       SUNNY     69  50  50 SE10      30.28R
GRAND FORKS    MOSUNNY   69  53  56 W6        30.25S
FARGO          SUNNY     72  54  53 W3        30.25S
BUFFALO SD       N/A     72  61  68 SE16      30.18S
RAPID CITY     CLOUDY    67  63  87 S5        30.27R
$$

REGIONAL REPORTS...WYOMING/IDAHO/WASHINGTON

CITY           SKY/WX    TMP DP  RH WIND       PRES   REMARKS
GILLETTE       SUNNY     77  54  44 S17       30.25F
SHERIDAN       SUNNY     75  48  38 N5        30.17S
BUFFALO WY     SUNNY     81  37  20 S17       30.26S
CODY           SUNNY     75  37  25 S15       30.24F
YELLOWSTONE LA   N/A     58  44  60 CALM      30.48S
IDAHO FALLS    MOSUNNY   66  41  40 NW12      30.19S
SALMON         CLOUDY    59  43  55 CALM      30.18S
BOISE          PTSUNNY   73  38  27 CALM      29.99F
SPOKANE        PTSUNNY   66  44  45 NE10      29.96F
$$

REGIONAL REPORTS...ALBERTA

CITY           SKY/WX    TMP DP  RH WIND       PRES   REMARKS
EDMONTON       SUNNY     59  46  63 E14       30.15F
CALGARY        MOSUNNY   64  52  63 S8        30.11F
LETHBRIDGE     PTSUNNY   64  55  72 W5        30.11S
MEDICINE HAT   MOSUNNY   70  55  60 W7        30.10R
WATERTON GATE    N/A     61  52  72 SW5         N/A
$$

REGIONAL REPORTS...SASKATCHEWAN

CITY           SKY/WX    TMP DP  RH WIND       PRES   REMARKS
SWIFT CURRENT  PTSUNNY   66  48  52 E10       30.15R
REGINA         MOSUNNY   70  48  46 E17G25    30.21F
SASKATOON      PTSUNNY   61  45  55 E12       30.27S
CYPRESS HILLS    N/A     70  48  46 SE8         N/A
VAL MARIE        N/A     72  46  40 E10         N/A
ROCKGLEN         N/A     68  50  52 E7          N/A
ASSINIBOIA       N/A     59  45  58 E13         N/A
$$




USA.gov is the U.S. government's official web portal to all federal, state and local government web resources and services.